owner,sensor,date,latitude,longitude,vertical_datum,direction_of_sea_water_velocity,sea_water_speed,upward_sea_water_velocity,qcFlag 
TABS,ioos:station:wmo:42046:1,2016-10-01T00:00:00Z,27.8903,-94.0367,2.0,61.34608818,40.97858099,-99999.0,'11111222,11111222,99999999' 
TABS,ioos:station:wmo:42046:1,2016-10-01T00:30:00Z,27.8903,-94.0367,2.0,61.94418156,42.62941355,-99999.0,'11111222,11111222,99999999' 
TABS,ioos:station:wmo:42046:1,2016-10-01T01:00:00Z,27.8903,-94.0367,2.0,64.20158422,42.11787388,-99999.0,'11111222,11111222,99999999' 
TABS,ioos:station:wmo:42046:1,2016-10-01T01:30:00Z,27.8903,-94.0367,2.0,67.19895316,40.12558535,-99999.0,'11111222,11111222,99999999' 
TABS,ioos:station:wmo:42046:1,2016-10-01T02:00:00Z,27.8903,-94.0367,2.0,70.72728987,40.65858827,-99999.0,'11111222,11111222,99999999' 
TABS,ioos:station:wmo:42046:1,2016-10-01T02:30:00Z,27.8903,-94.0367,2.0,76.20889498,37.41873862,-99999.0,'11111222,11111222,99999999' 
TABS,ioos:station:wmo:42046:1,2016-10-01T03:00:00Z,27.8903,-94.0367,2.0,77.76794343,33.51078185,-99999.0,'11111222,11111222,99999999' 
TABS,ioos:station:wmo:42046:1,2016-10-01T03:30:00Z,27.8903,-94.0367,2.0,74.42521056,35.68015275,-99999.0,'11111222,11111222,99999999' 
TABS,ioos:station:wmo:42046:1,2016-10-01T04:00:00Z,27.8903,-94.0367,2.0,76.6279665,31.17519848,-99999.0,'11111222,11111222,99999999' 
TABS,ioos:station:wmo:42046:1,2016-10-01T04:30:00Z,27.8903,-94.0367,2.0,79.568921,34.90689473,-99999.0,'11111222,11111222,99999999' 
TABS,ioos:station:wmo:42046:1,2016-10-01T05:00:00Z,27.8903,-94.0367,2.0,72.34257287,33.79204788,-99999.0,'11111222,11111222,99999999' 
TABS,ioos:station:wmo:42046:1,2016-10-01T05:30:00Z,27.8903,-94.0367,2.0,74.58148305,31.66981686,-99999.0,'11111222,11111222,99999999' 
TABS,ioos:station:wmo:42046:1,2016-10-01T06:00:00Z,27.8903,-94.0367,2.0,72.34167153,30.09816107,-99999.0,'11111222,11111222,99999999' 
TABS,ioos:station:wmo:42046:1,2016-10-01T06:30:00Z,27.8903,-94.0367,2.0,59.0978579,27.14309673,-99999.0,'11111222,11111222,99999999' 
TABS,ioos:station:wmo:42046:1,2016-10-01T07:00:00Z,27.8903,-94.0367,2.0,91.10571458,27.46511424,-99999.0,'11111222,11111222,99999999' 
TABS,ioos:station:wmo:42046:1,2016-10-01T07:30:00Z,27.8903,-94.0367,2.0,91.71377058,23.7406192,-99999.0,'11111222,11111222,99999999' 
TABS,ioos:station:wmo:42046:1,2016-10-01T08:00:00Z,27.8903,-94.0367,2.0,87.55915175,26.0636471,-99999.0,'11111222,11111222,99999999' 
TABS,ioos:station:wmo:42046:1,2016-10-01T08:30:00Z,27.8903,-94.0367,2.0,74.7625938,19.89957035,-99999.0,'11111222,11111222,99999999' 
TABS,ioos:station:wmo:42046:1,2016-10-01T09:00:00Z,27.8903,-94.0367,2.0,80.71009025,21.30949319,-99999.0,'11111222,11111222,99999999' 
TABS,ioos:station:wmo:42046:1,2016-10-01T09:30:00Z,27.8903,-94.0367,2.0,77.30085241,19.33292787,-99999.0,'11111222,11111222,99999999' 
TABS,ioos:station:wmo:42046:1,2016-10-01T10:00:00Z,27.8903,-94.0367,2.0,71.75651564,17.98397342,-99999.0,'11111222,11111222,99999999' 
TABS,ioos:station:wmo:42046:1,2016-10-01T10:30:00Z,27.8903,-94.0367,2.0,58.72936619,15.04578679,-99999.0,'11111222,11111222,99999999' 
TABS,ioos:station:wmo:42046:1,2016-10-01T11:00:00Z,27.8903,-94.0367,2.0,67.22124205,14.6962104,-99999.0,'11111222,11111222,99999999' 
TABS,ioos:station:wmo:42046:1,2016-10-01T11:30:00Z,27.8903,-94.0367,2.0,56.29820746,13.46257405,-99999.0,'11111222,11111222,99999999' 
TABS,ioos:station:wmo:42046:1,2016-10-01T12:00:00Z,27.8903,-94.0367,2.0,62.94781482,13.14855505,-99999.0,'11111222,11111222,99999999' 
TABS,ioos:station:wmo:42046:1,2016-10-01T12:30:00Z,27.8903,-94.0367,2.0,65.03575662,11.84683924,-99999.0,'11111222,11111222,99999999' 
TABS,ioos:station:wmo:42046:1,2016-10-01T13:00:00Z,27.8903,-94.0367,2.0,50.20517702,20.65490983,-99999.0,'11111222,11111222,99999999' 
TABS,ioos:station:wmo:42046:1,2016-10-01T13:30:00Z,27.8903,-94.0367,2.0,44.4119582,19.97681907,-99999.0,'11111222,11111222,99999999' 
TABS,ioos:station:wmo:42046:1,2016-10-01T14:00:00Z,27.8903,-94.0367,2.0,44.81310966,21.66586716,-99999.0,'11111222,11111222,99999999' 
TABS,ioos:station:wmo:42046:1,2016-10-01T14:30:00Z,27.8903,-94.0367,2.0,46.24510583,24.40801713,-99999.0,'11111222,11111222,99999999' 
TABS,ioos:station:wmo:42046:1,2016-10-01T15:00:00Z,27.8903,-94.0367,2.0,33.92859857,25.99624973,-99999.0,'11111222,11111222,99999999' 
TABS,ioos:station:wmo:42046:1,2016-10-01T15:30:00Z,27.8903,-94.0367,2.0,26.41408098,23.73818022,-99999.0,'11111222,11111222,99999999' 
TABS,ioos:station:wmo:42046:1,2016-10-01T16:00:00Z,27.8903,-94.0367,2.0,26.17510753,26.2744077,-99999.0,'11111222,11111222,99999999' 
TABS,ioos:station:wmo:42046:1,2016-10-01T16:30:00Z,27.8903,-94.0367,2.0,23.46789357,31.86579671,-99999.0,'11111222,11111222,99999999' 
TABS,ioos:station:wmo:42046:1,2016-10-01T17:00:00Z,27.8903,-94.0367,2.0,25.4603951,31.77596104,-99999.0,'11111222,11111222,99999999' 
TABS,ioos:station:wmo:42046:1,2016-10-01T17:30:00Z,27.8903,-94.0367,2.0,23.87872265,33.96742704,-99999.0,'11111222,11111222,99999999' 
TABS,ioos:station:wmo:42046:1,2016-10-01T18:00:00Z,27.8903,-94.0367,2.0,25.1034899,32.43353974,-99999.0,'11111222,11111222,99999999' 
TABS,ioos:station:wmo:42046:1,2016-10-01T18:30:00Z,27.8903,-94.0367,2.0,24.62486668,37.77543117,-99999.0,'11111222,11111222,99999999' 
TABS,ioos:station:wmo:42046:1,2016-10-01T19:00:00Z,27.8903,-94.0367,2.0,26.01263257,38.48899193,-99999.0,'11111222,11111222,99999999' 
TABS,ioos:station:wmo:42046:1,2016-10-01T19:30:00Z,27.8903,-94.0367,2.0,29.27850308,36.56044994,-99999.0,'11111222,11111222,99999999' 
TABS,ioos:station:wmo:42046:1,2016-10-01T20:00:00Z,27.8903,-94.0367,2.0,23.23891472,37.45910837,-99999.0,'11111222,11111222,99999999' 
TABS,ioos:station:wmo:42046:1,2016-10-01T20:30:00Z,27.8903,-94.0367,2.0,17.33658071,32.98861925,-99999.0,'11111222,11111222,99999999' 
TABS,ioos:station:wmo:42046:1,2016-10-01T21:00:00Z,27.8903,-94.0367,2.0,13.46113852,31.40267027,-99999.0,'11111222,11111222,99999999' 
TABS,ioos:station:wmo:42046:1,2016-10-01T21:30:00Z,27.8903,-94.0367,2.0,17.65187106,31.46127779,-99999.0,'11111222,11111222,99999999' 
TABS,ioos:station:wmo:42046:1,2016-10-01T22:00:00Z,27.8903,-94.0367,2.0,10.35256382,34.50164634,-99999.0,'11111222,11111222,99999999' 
TABS,ioos:station:wmo:42046:1,2016-10-01T22:30:00Z,27.8903,-94.0367,2.0,10.70661016,34.07314632,-99999.0,'11111222,11111222,99999999' 
TABS,ioos:station:wmo:42046:1,2016-10-01T23:00:00Z,27.8903,-94.0367,2.0,4.036236394,32.10963251,-99999.0,'11111222,11111222,99999999' 
TABS,ioos:station:wmo:42046:1,2016-10-01T23:30:00Z,27.8903,-94.0367,2.0,4.514188361,34.30641339,-99999.0,'11111222,11111222,99999999' 
TABS,ioos:station:wmo:42046:1,2016-10-02T00:00:00Z,27.8903,-94.0367,2.0,356.0957229,32.45533084,-99999.0,'11111222,11111222,99999999' 
TABS,ioos:station:wmo:42046:1,2016-10-02T00:30:00Z,27.8903,-94.0367,2.0,359.0851268,35.06447205,-99999.0,'11111222,11144222,99999999' 
TABS,ioos:station:wmo:42046:1,2016-10-02T01:00:00Z,27.8903,-94.0367,2.0,349.8062084,35.14479336,-99999.0,'11111222,11111222,99999999' 
TABS,ioos:station:wmo:42046:1,2016-10-02T01:30:00Z,27.8903,-94.0367,2.0,355.1610566,34.02127129,-99999.0,'11111222,11111222,99999999' 
TABS,ioos:station:wmo:42046:1,2016-10-02T02:00:00Z,27.8903,-94.0367,2.0,344.7269762,38.75894993,-99999.0,'11111222,11111222,99999999' 
TABS,ioos:station:wmo:42046:1,2016-10-02T02:30:00Z,27.8903,-94.0367,2.0,346.1129864,41.03959186,-99999.0,'11111222,11111222,99999999' 
TABS,ioos:station:wmo:42046:1,2016-10-02T03:00:00Z,27.8903,-94.0367,2.0,348.6930584,40.80196196,-99999.0,'11111222,11111222,99999999' 
TABS,ioos:station:wmo:42046:1,2016-10-02T03:30:00Z,27.8903,-94.0367,2.0,346.4434359,40.86868361,-99999.0,'11111222,11111222,99999999' 
TABS,ioos:station:wmo:42046:1,2016-10-02T04:00:00Z,27.8903,-94.0367,2.0,348.0349963,32.75157553,-99999.0,'11111222,11111222,99999999' 
TABS,ioos:station:wmo:42046:1,2016-10-02T04:30:00Z,27.8903,-94.0367,2.0,350.3987732,32.49519965,-99999.0,'11111222,11111222,99999999' 
TABS,ioos:station:wmo:42046:1,2016-10-02T05:00:00Z,27.8903,-94.0367,2.0,348.7776211,28.31135814,-99999.0,'11111222,11111222,99999999' 
TABS,ioos:station:wmo:42046:1,2016-10-02T05:30:00Z,27.8903,-94.0367,2.0,340.0942897,20.94117953,-99999.0,'11111222,11111222,99999999' 
TABS,ioos:station:wmo:42046:1,2016-10-02T06:00:00Z,27.8903,-94.0367,2.0,4.223178859,20.50567239,-99999.0,'11111222,11111222,99999999' 
TABS,ioos:station:wmo:42046:1,2016-10-02T06:30:00Z,27.8903,-94.0367,2.0,20.24146542,22.37158242,-99999.0,'11111222,11111222,99999999' 
TABS,ioos:station:wmo:42046:1,2016-10-02T07:00:00Z,27.8903,-94.0367,2.0,21.19291809,25.1724234,-99999.0,'11111222,11111222,99999999' 
TABS,ioos:station:wmo:42046:1,2016-10-02T07:30:00Z,27.8903,-94.0367,2.0,28.61060322,25.56112674,-99999.0,'11111222,11111222,99999999' 
TABS,ioos:station:wmo:42046:1,2016-10-02T08:00:00Z,27.8903,-94.0367,2.0,13.07265256,34.75056978,-99999.0,'11111222,11111222,99999999' 
TABS,ioos:station:wmo:42046:1,2016-10-02T08:30:00Z,27.8903,-94.0367,2.0,15.30980065,35.03322138,-99999.0,'11111222,11111222,99999999' 
TABS,ioos:station:wmo:42046:1,2016-10-02T09:00:00Z,27.8903,-94.0367,2.0,19.17844788,32.41923657,-99999.0,'11111222,11111222,99999999' 
TABS,ioos:station:wmo:42046:1,2016-10-02T09:30:00Z,27.8903,-94.0367,2.0,18.46270194,32.84025731,-99999.0,'11111222,11111222,99999999' 
TABS,ioos:station:wmo:42046:1,2016-10-02T10:00:00Z,27.8903,-94.0367,2.0,25.75027958,35.21716059,-99999.0,'11111222,11111222,99999999' 
TABS,ioos:station:wmo:42046:1,2016-10-02T10:30:00Z,27.8903,-94.0367,2.0,30.67566883,38.18292812,-99999.0,'11111222,11111222,99999999' 
TABS,ioos:station:wmo:42046:1,2016-10-02T11:00:00Z,27.8903,-94.0367,2.0,39.47561845,34.2273867,-99999.0,'11111222,11111222,99999999' 
TABS,ioos:station:wmo:42046:1,2016-10-02T11:30:00Z,27.8903,-94.0367,2.0,47.82216652,32.60180516,-99999.0,'11111222,11111222,99999999' 
TABS,ioos:station:wmo:42046:1,2016-10-02T12:00:00Z,27.8903,-94.0367,2.0,41.80269101,33.21501468,-99999.0,'11111222,11111222,99999999' 
TABS,ioos:station:wmo:42046:1,2016-10-02T12:30:00Z,27.8903,-94.0367,2.0,46.16088319,29.66921806,-99999.0,'11111222,11111222,99999999' 
TABS,ioos:station:wmo:42046:1,2016-10-02T13:00:00Z,27.8903,-94.0367,2.0,54.77717809,31.1048501,-99999.0,'11111222,11111222,99999999' 
TABS,ioos:station:wmo:42046:1,2016-10-02T13:30:00Z,27.8903,-94.0367,2.0,56.36414545,29.35474749,-99999.0,'11111222,11111222,99999999' 
TABS,ioos:station:wmo:42046:1,2016-10-02T14:00:00Z,27.8903,-94.0367,2.0,65.08559692,28.72303083,-99999.0,'11111222,11111222,99999999' 
TABS,ioos:station:wmo:42046:1,2016-10-02T14:30:00Z,27.8903,-94.0367,2.0,59.09604029,29.61439177,-99999.0,'11111222,11111222,99999999' 
TABS,ioos:station:wmo:42046:1,2016-10-02T15:00:00Z,27.8903,-94.0367,2.0,56.62492314,25.23091952,-99999.0,'11111222,11111222,99999999' 
TABS,ioos:station:wmo:42046:1,2016-10-02T15:30:00Z,27.8903,-94.0367,2.0,64.05016749,27.49180423,-99999.0,'11111222,11111222,99999999' 
TABS,ioos:station:wmo:42046:1,2016-10-02T16:00:00Z,27.8903,-94.0367,2.0,60.43202611,26.12183952,-99999.0,'11111222,11111222,99999999' 
TABS,ioos:station:wmo:42046:1,2016-10-02T16:30:00Z,27.8903,-94.0367,2.0,49.74863077,28.95641725,-99999.0,'11111222,11111222,99999999' 
TABS,ioos:station:wmo:42046:1,2016-10-02T17:00:00Z,27.8903,-94.0367,2.0,48.01919839,26.98529414,-99999.0,'11111222,11111222,99999999' 
TABS,ioos:station:wmo:42046:1,2016-10-02T17:30:00Z,27.8903,-94.0367,2.0,44.28121233,25.92457521,-99999.0,'11111222,11111222,99999999' 
TABS,ioos:station:wmo:42046:1,2016-10-02T18:00:00Z,27.8903,-94.0367,2.0,39.67881144,27.75334214,-99999.0,'11111222,11111222,99999999' 
TABS,ioos:station:wmo:42046:1,2016-10-02T18:30:00Z,27.8903,-94.0367,2.0,44.91062746,27.16707566,-99999.0,'11111222,11111222,99999999' 
TABS,ioos:station:wmo:42046:1,2016-10-02T19:00:00Z,27.8903,-94.0367,2.0,43.95531566,27.92121774,-99999.0,'11111222,11111222,99999999' 
TABS,ioos:station:wmo:42046:1,2016-10-02T19:30:00Z,27.8903,-94.0367,2.0,41.10794,27.60547953,-99999.0,'11111222,11111222,99999999' 
TABS,ioos:station:wmo:42046:1,2016-10-02T20:00:00Z,27.8903,-94.0367,2.0,47.41824807,25.13881859,-99999.0,'11111222,11111222,99999999' 
TABS,ioos:station:wmo:42046:1,2016-10-02T20:30:00Z,27.8903,-94.0367,2.0,39.19736262,25.80728773,-99999.0,'11111222,11111222,99999999' 
TABS,ioos:station:wmo:42046:1,2016-10-02T21:00:00Z,27.8903,-94.0367,2.0,37.48325461,26.16149843,-99999.0,'11111222,11111222,99999999' 
TABS,ioos:station:wmo:42046:1,2016-10-02T21:30:00Z,27.8903,-94.0367,2.0,45.85800118,30.22513193,-99999.0,'11111222,11111222,99999999' 
TABS,ioos:station:wmo:42046:1,2016-10-02T22:00:00Z,27.8903,-94.0367,2.0,43.13971864,26.57293736,-99999.0,'11111222,11111222,99999999' 
TABS,ioos:station:wmo:42046:1,2016-10-02T22:30:00Z,27.8903,-94.0367,2.0,46.23905581,27.47044958,-99999.0,'11111222,11111222,99999999' 
TABS,ioos:station:wmo:42046:1,2016-10-02T23:00:00Z,27.8903,-94.0367,2.0,36.12386946,28.41240926,-99999.0,'11111222,11111222,99999999' 
TABS,ioos:station:wmo:42046:1,2016-10-02T23:30:00Z,27.8903,-94.0367,2.0,38.87318655,26.43415404,-99999.0,'11111222,11111222,99999999' 
TABS,ioos:station:wmo:42046:1,2016-10-03T00:00:00Z,27.8903,-94.0367,2.0,30.16530927,26.20924455,-99999.0,'11111222,11111222,99999999' 
TABS,ioos:station:wmo:42046:1,2016-10-03T00:30:00Z,27.8903,-94.0367,2.0,34.43857581,24.84436757,-99999.0,'11111222,11111222,99999999' 
TABS,ioos:station:wmo:42046:1,2016-10-03T01:00:00Z,27.8903,-94.0367,2.0,38.38177898,25.09273401,-99999.0,'11111222,11111222,99999999' 
TABS,ioos:station:wmo:42046:1,2016-10-03T01:30:00Z,27.8903,-94.0367,2.0,54.0756209,24.96939927,-99999.0,'11111222,11111222,99999999' 
TABS,ioos:station:wmo:42046:1,2016-10-03T02:00:00Z,27.8903,-94.0367,2.0,50.13511913,23.46405123,-99999.0,'11111222,11111222,99999999' 
TABS,ioos:station:wmo:42046:1,2016-10-03T02:30:00Z,27.8903,-94.0367,2.0,41.04865933,20.00919039,-99999.0,'11111222,11111222,99999999' 
TABS,ioos:station:wmo:42046:1,2016-10-03T03:00:00Z,27.8903,-94.0367,2.0,47.04989761,19.76921344,-99999.0,'11111222,11111222,99999999' 
TABS,ioos:station:wmo:42046:1,2016-10-03T03:30:00Z,27.8903,-94.0367,2.0,59.40562916,19.15678992,-99999.0,'11111222,11111222,99999999' 
TABS,ioos:station:wmo:42046:1,2016-10-03T04:00:00Z,27.8903,-94.0367,2.0,55.85510005,19.56211901,-99999.0,'11111222,11111222,99999999' 
TABS,ioos:station:wmo:42046:1,2016-10-03T04:30:00Z,27.8903,-94.0367,2.0,45.51626825,19.62300945,-99999.0,'11111222,11111222,99999999' 
TABS,ioos:station:wmo:42046:1,2016-10-03T05:00:00Z,27.8903,-94.0367,2.0,43.35227972,22.62263026,-99999.0,'11111222,11111222,99999999' 
TABS,ioos:station:wmo:42046:1,2016-10-03T05:30:00Z,27.8903,-94.0367,2.0,49.04737934,23.34324099,-99999.0,'11111222,11111222,99999999' 
TABS,ioos:station:wmo:42046:1,2016-10-03T06:00:00Z,27.8903,-94.0367,2.0,63.58469778,22.25342446,-99999.0,'11111222,11111222,99999999' 
TABS,ioos:station:wmo:42046:1,2016-10-03T06:30:00Z,27.8903,-94.0367,2.0,47.88077583,25.46681174,-99999.0,'11111222,11111222,99999999' 
TABS,ioos:station:wmo:42046:1,2016-10-03T07:00:00Z,27.8903,-94.0367,2.0,54.17686058,26.82447576,-99999.0,'11111222,11111222,99999999' 
TABS,ioos:station:wmo:42046:1,2016-10-03T07:30:00Z,27.8903,-94.0367,2.0,61.71165291,22.00839158,-99999.0,'11111222,11111222,99999999' 
TABS,ioos:station:wmo:42046:1,2016-10-03T08:00:00Z,27.8903,-94.0367,2.0,54.99087293,24.57695872,-99999.0,'11111222,11111222,99999999' 
TABS,ioos:station:wmo:42046:1,2016-10-03T08:30:00Z,27.8903,-94.0367,2.0,59.33518358,26.95994436,-99999.0,'11111222,11111222,99999999' 
TABS,ioos:station:wmo:42046:1,2016-10-03T09:00:00Z,27.8903,-94.0367,2.0,68.95480408,26.5938884,-99999.0,'11111222,11111222,99999999' 
TABS,ioos:station:wmo:42046:1,2016-10-03T09:30:00Z,27.8903,-94.0367,2.0,58.47503512,22.75895428,-99999.0,'11111222,11111222,99999999' 
TABS,ioos:station:wmo:42046:1,2016-10-03T10:00:00Z,27.8903,-94.0367,2.0,63.72208071,25.88504781,-99999.0,'11111222,11111222,99999999' 
TABS,ioos:station:wmo:42046:1,2016-10-03T10:30:00Z,27.8903,-94.0367,2.0,69.71380959,28.58293547,-99999.0,'11111222,11111222,99999999' 
TABS,ioos:station:wmo:42046:1,2016-10-03T11:00:00Z,27.8903,-94.0367,2.0,69.8457369,28.87827211,-99999.0,'11111222,11111222,99999999' 
TABS,ioos:station:wmo:42046:1,2016-10-03T11:30:00Z,27.8903,-94.0367,2.0,58.66238296,28.38019027,-99999.0,'11111222,11111222,99999999' 
TABS,ioos:station:wmo:42046:1,2016-10-03T12:00:00Z,27.8903,-94.0367,2.0,65.08394772,27.81926131,-99999.0,'11111222,11111222,99999999' 
TABS,ioos:station:wmo:42046:1,2016-10-03T12:30:00Z,27.8903,-94.0367,2.0,70.56510947,31.16583065,-99999.0,'11111222,11111222,99999999' 
TABS,ioos:station:wmo:42046:1,2016-10-03T13:00:00Z,27.8903,-94.0367,2.0,71.66030923,30.44645135,-99999.0,'11111222,11111222,99999999' 
TABS,ioos:station:wmo:42046:1,2016-10-03T13:30:00Z,27.8903,-94.0367,2.0,75.39165214,34.73283317,-99999.0,'11111222,11111222,99999999' 
TABS,ioos:station:wmo:42046:1,2016-10-03T14:00:00Z,27.8903,-94.0367,2.0,77.78567603,33.79502034,-99999.0,'11111222,11111222,99999999' 
TABS,ioos:station:wmo:42046:1,2016-10-03T14:30:00Z,27.8903,-94.0367,2.0,77.69534993,36.60078688,-99999.0,'11111222,11111222,99999999' 
TABS,ioos:station:wmo:42046:1,2016-10-03T15:00:00Z,27.8903,-94.0367,2.0,83.80498392,35.30617651,-99999.0,'11111222,11111222,99999999' 
TABS,ioos:station:wmo:42046:1,2016-10-03T15:30:00Z,27.8903,-94.0367,2.0,80.56213928,38.54170209,-99999.0,'11111222,11111222,99999999' 
TABS,ioos:station:wmo:42046:1,2016-10-03T16:00:00Z,27.8903,-94.0367,2.0,80.98600915,33.82777114,-99999.0,'11111222,11111222,99999999' 
TABS,ioos:station:wmo:42046:1,2016-10-03T16:30:00Z,27.8903,-94.0367,2.0,84.81030684,32.94505274,-99999.0,'11111222,11111222,99999999' 
TABS,ioos:station:wmo:42046:1,2016-10-03T17:00:00Z,27.8903,-94.0367,2.0,84.01997611,28.98774396,-99999.0,'11111222,11111222,99999999' 
TABS,ioos:station:wmo:42046:1,2016-10-03T17:30:00Z,27.8903,-94.0367,2.0,86.83240383,28.59368637,-99999.0,'11111222,11111222,99999999' 
TABS,ioos:station:wmo:42046:1,2016-10-03T18:00:00Z,27.8903,-94.0367,2.0,79.70328397,31.60905725,-99999.0,'11111222,11111222,99999999' 
TABS,ioos:station:wmo:42046:1,2016-10-03T18:30:00Z,27.8903,-94.0367,2.0,78.74273927,25.61277806,-99999.0,'11111222,11111222,99999999' 
TABS,ioos:station:wmo:42046:1,2016-10-03T19:00:00Z,27.8903,-94.0367,2.0,70.5455103,26.30166535,-99999.0,'11111222,11111222,99999999' 
TABS,ioos:station:wmo:42046:1,2016-10-03T19:30:00Z,27.8903,-94.0367,2.0,80.05352289,21.59457802,-99999.0,'11111222,11111222,99999999' 
TABS,ioos:station:wmo:42046:1,2016-10-03T20:00:00Z,27.8903,-94.0367,2.0,72.88913916,30.92900904,-99999.0,'11111222,11111222,99999999' 
TABS,ioos:station:wmo:42046:1,2016-10-03T20:30:00Z,27.8903,-94.0367,2.0,76.84579094,28.51829238,-99999.0,'11111222,11111222,99999999' 
TABS,ioos:station:wmo:42046:1,2016-10-03T21:00:00Z,27.8903,-94.0367,2.0,71.80616851,22.5472393,-99999.0,'11111222,11111222,99999999' 
TABS,ioos:station:wmo:42046:1,2016-10-03T21:30:00Z,27.8903,-94.0367,2.0,71.05709151,29.60324475,-99999.0,'11111222,11111222,99999999' 
TABS,ioos:station:wmo:42046:1,2016-10-03T22:00:00Z,27.8903,-94.0367,2.0,67.24698855,24.48545078,-99999.0,'11111222,11111222,99999999' 
TABS,ioos:station:wmo:42046:1,2016-10-03T22:30:00Z,27.8903,-94.0367,2.0,67.99009744,25.50913758,-99999.0,'11111222,11111222,99999999' 
TABS,ioos:station:wmo:42046:1,2016-10-03T23:00:00Z,27.8903,-94.0367,2.0,79.53248987,26.14510662,-99999.0,'11111222,11111222,99999999' 
TABS,ioos:station:wmo:42046:1,2016-10-03T23:30:00Z,27.8903,-94.0367,2.0,74.02074046,25.53670691,-99999.0,'11111222,11111222,99999999' 
TABS,ioos:station:wmo:42046:1,2016-10-04T00:00:00Z,27.8903,-94.0367,2.0,73.34424669,25.25980206,-99999.0,'11111222,11111222,99999999' 
TABS,ioos:station:wmo:42046:1,2016-10-04T00:30:00Z,27.8903,-94.0367,2.0,62.17487001,25.62259159,-99999.0,'11111222,11111222,99999999' 
TABS,ioos:station:wmo:42046:1,2016-10-04T01:00:00Z,27.8903,-94.0367,2.0,69.46841745,24.72026294,-99999.0,'11111222,11111222,99999999' 
TABS,ioos:station:wmo:42046:1,2016-10-04T01:30:00Z,27.8903,-94.0367,2.0,73.45341798,28.40635492,-99999.0,'11111222,11111222,99999999' 
TABS,ioos:station:wmo:42046:1,2016-10-04T02:00:00Z,27.8903,-94.0367,2.0,73.07252652,28.36912406,-99999.0,'11111222,11111222,99999999' 
TABS,ioos:station:wmo:42046:1,2016-10-04T02:30:00Z,27.8903,-94.0367,2.0,66.46268638,25.3163228,-99999.0,'11111222,11111222,99999999' 
TABS,ioos:station:wmo:42046:1,2016-10-04T03:00:00Z,27.8903,-94.0367,2.0,67.42453441,25.84000774,-99999.0,'11111222,11111222,99999999' 
TABS,ioos:station:wmo:42046:1,2016-10-04T03:30:00Z,27.8903,-94.0367,2.0,71.7194211,27.00278689,-99999.0,'11111222,11111222,99999999' 
TABS,ioos:station:wmo:42046:1,2016-10-04T04:00:00Z,27.8903,-94.0367,2.0,53.96861968,30.88930721,-99999.0,'11111222,11111222,99999999' 
TABS,ioos:station:wmo:42046:1,2016-10-04T04:30:00Z,27.8903,-94.0367,2.0,57.37896943,31.07139199,-99999.0,'11111222,11111222,99999999' 
TABS,ioos:station:wmo:42046:1,2016-10-04T05:00:00Z,27.8903,-94.0367,2.0,58.95536701,30.34670493,-99999.0,'11111222,11111222,99999999' 
TABS,ioos:station:wmo:42046:1,2016-10-04T05:30:00Z,27.8903,-94.0367,2.0,53.20034496,31.03402326,-99999.0,'11111222,11111222,99999999' 
TABS,ioos:station:wmo:42046:1,2016-10-04T06:00:00Z,27.8903,-94.0367,2.0,59.3247644,29.63704607,-99999.0,'11111222,11111222,99999999' 
TABS,ioos:station:wmo:42046:1,2016-10-04T06:30:00Z,27.8903,-94.0367,2.0,58.30191989,30.64073922,-99999.0,'11111222,11111222,99999999' 
TABS,ioos:station:wmo:42046:1,2016-10-04T07:00:00Z,27.8903,-94.0367,2.0,61.78660553,28.45008612,-99999.0,'11111222,11111222,99999999' 
TABS,ioos:station:wmo:42046:1,2016-10-04T07:30:00Z,27.8903,-94.0367,2.0,63.9695766,26.84292831,-99999.0,'11111222,11111222,99999999' 
TABS,ioos:station:wmo:42046:1,2016-10-04T08:00:00Z,27.8903,-94.0367,2.0,63.05054834,25.99263934,-99999.0,'11111222,11111222,99999999' 
TABS,ioos:station:wmo:42046:1,2016-10-04T08:30:00Z,27.8903,-94.0367,2.0,62.13128919,22.99720418,-99999.0,'11111222,11111222,99999999' 
TABS,ioos:station:wmo:42046:1,2016-10-04T09:00:00Z,27.8903,-94.0367,2.0,67.67693693,27.32805884,-99999.0,'11111222,11111222,99999999' 
TABS,ioos:station:wmo:42046:1,2016-10-04T09:30:00Z,27.8903,-94.0367,2.0,65.77933932,29.73776051,-99999.0,'11111222,11111222,99999999' 
TABS,ioos:station:wmo:42046:1,2016-10-04T10:00:00Z,27.8903,-94.0367,2.0,63.85917369,31.41314375,-99999.0,'11111222,11111222,99999999' 
TABS,ioos:station:wmo:42046:1,2016-10-04T10:30:00Z,27.8903,-94.0367,2.0,64.165976,30.49797698,-99999.0,'11111222,11111222,99999999' 
TABS,ioos:station:wmo:42046:1,2016-10-04T11:00:00Z,27.8903,-94.0367,2.0,60.3022063,25.69504427,-99999.0,'11111222,11111222,99999999' 
TABS,ioos:station:wmo:42046:1,2016-10-04T11:30:00Z,27.8903,-94.0367,2.0,62.22012868,28.68625629,-99999.0,'11111222,11111222,99999999' 
TABS,ioos:station:wmo:42046:1,2016-10-04T12:00:00Z,27.8903,-94.0367,2.0,78.52654833,32.97902364,-99999.0,'11111222,11111222,99999999' 
TABS,ioos:station:wmo:42046:1,2016-10-04T12:30:00Z,27.8903,-94.0367,2.0,64.95609932,28.13517727,-99999.0,'11111222,11111222,99999999' 
TABS,ioos:station:wmo:42046:1,2016-10-04T13:00:00Z,27.8903,-94.0367,2.0,66.25843794,23.96843967,-99999.0,'11111222,11111222,99999999' 
TABS,ioos:station:wmo:42046:1,2016-10-04T13:30:00Z,27.8903,-94.0367,2.0,67.500321,27.88236898,-99999.0,'11111222,11111222,99999999' 
TABS,ioos:station:wmo:42046:1,2016-10-04T14:00:00Z,27.8903,-94.0367,2.0,79.65725729,25.67722142,-99999.0,'11111222,11111222,99999999' 
TABS,ioos:station:wmo:42046:1,2016-10-04T14:30:00Z,27.8903,-94.0367,2.0,73.54225725,27.95536621,-99999.0,'11111222,11111222,99999999' 
TABS,ioos:station:wmo:42046:1,2016-10-04T15:00:00Z,27.8903,-94.0367,2.0,73.73191942,23.16760022,-99999.0,'11111222,11111222,99999999' 
TABS,ioos:station:wmo:42046:1,2016-10-04T15:30:00Z,27.8903,-94.0367,2.0,66.02759393,23.33265523,-99999.0,'11111222,11111222,99999999' 
TABS,ioos:station:wmo:42046:1,2016-10-04T16:00:00Z,27.8903,-94.0367,2.0,65.56785671,28.23874112,-99999.0,'11111222,11111222,99999999' 